Regional Weather Roundup
Issued by NWS

Home | Current Version | Previous Version | Graphics & Text | Print | Product List | Glossary On
Versions: 1 2 3 4 5 6 7 8 9 10 11 12 13 14 15 16 17 18 19 20 21 22 23 24 25 26 27 28 29 30 31 32 33 34 35 36 37 38 39 40 41 42 43 44 45 46 47 48 49 50
000
ASUS43 KLOT 241203
RWRIL

ILLINOIS REGIONAL WEATHER ROUNDUP
NATIONAL WEATHER SERVICE CHICAGO/ROMEOVILLE IL
600 AM CST FRI FEB 24 2017

NOTE: "FAIR" INDICATES FEW OR NO CLOUDS BELOW 12,000 FEET WITH NO
SIGNIFICANT WEATHER AND/OR OBSTRUCTIONS TO VISIBILITY.

* THESE STATIONS ARE NOT UNDER NWS QUALITY CONTROL. THEY ALSO MAY NOT
  REPORT WEATHER SUCH AS PRECIPITATION OR FOG.

ILZ001-002-007-009-015-016-024-241300-
NORTHWEST ILLINOIS

CITY           SKY/WX    TMP DP  RH WIND       PRES   REMARKS
MOLINE         CLOUDY    41  37  86 NE12      29.44F
6HR MIN TEMP:  40; 6HR MAX TEMP:  42; 6HR PCP:  0.01;

STERLING*      CLOUDY    39  38  96 NE10      29.47R WCI  32
$$

ILZ003-004-008-010-011-017-018-241300-
NORTH CENTRAL ILLINOIS

CITY           SKY/WX    TMP DP  RH WIND       PRES   REMARKS
ROCKFORD       DRIZZLE   38  35  89 NE17      29.51F WCI  28
6HR MIN TEMP:  37; 6HR MAX TEMP:  38; 6HR PCP:  0.12;

FREEPORT*      CLOUDY    35  34  97 NE15      29.51R THUNDER WCI  25
ROCHELLE*      CLOUDY    38  37  97 NE18      29.47F WCI  28
DE KALB*       CLOUDY    38  37  97 NE14      29.48S WCI  30
PERU*          CLOUDY    42  41  97 NE14      29.42F FOG
$$

ILZ005-006-012>014-019>023-241300-
NORTHEAST ILLINOIS

CITY           SKY/WX    TMP DP  RH WIND       PRES   REMARKS
CHICAGO-OHARE  TSTM      40  38  93 NE16      29.47F
6HR MIN TEMP:  39; 6HR MAX TEMP:  40; 6HR PCP:  0.10;

CHICAGO-MIDWAY TSTM      42  39  89 N7        29.49F FOG
6HR MIN TEMP:  41; 6HR MAX TEMP:  42; 6HR PCP:  0.06;

AURORA         CLOUDY    41  39  93 NE16      29.47F
6HR MIN TEMP:  40; 6HR MAX TEMP:  41; 6HR PCP:  0.01;

LANSING*       CLOUDY    43  43 100 W8        29.51R FOG
JOLIET*        CLOUDY    47  47  99 N7        29.43F FOG
WAUKEGAN       LGT RAIN  37  36  96 N12G24    29.55R WCI  29
6HR MIN TEMP:  36; 6HR MAX TEMP:  37; 6HR PCP:  0.23;

DUPAGE AIRPORT CLOUDY    39  37  92 N13       29.49F WCI  31
6HR MIN TEMP:  38; 6HR MAX TEMP:  39; 6HR PCP:  0.07;

KANKAKEE*      CLOUDY    58  56  92 SE12      29.40F
WHEELING       TSTM      38  37  97 NE10      29.50F FOG     WCI  31
6HR MIN TEMP:  37; 6HR MAX TEMP:  38; 6HR PCP:  0.23;

MORRIS*        CLOUDY    44  43  96 N5        29.41F FOG
ROMEOVILLE*    CLOUDY    42  42 100 N9        29.44F THUNDER FOG
NORTHERLY ISL    N/A     42  40  92 W3          N/A
$$

LMZ740>746-241300-
SOUTHERN LAKE MICHIGAN

STATION/POSITION SKY/WX   TEMP    WIND        PRES    VSBY  WAVE
                          AIR SEA DIR/SP/G                  HT/PER
                          (F)     (DEG/KT/KT) (MB)    (MI)  (FT/S)
HARRISON CRIB              38     320/ 10/ 10   N/A
BURNHAM HARBOR             42     260/  4/ 10   N/A
CALUMET HARBOR             39     340/  6/  8  998.3F
BURNS HARBOR               54     180/ 10/ 18  998.6F
MICHIGAN CITY              58     140/ 14/ 18   N/A
$$

ILZ025>027-034>036-040-047-049-050-058-095>099-241300-
WEST-CENTRAL ILLINOIS

CITY           SKY/WX    TMP DP  RH WIND       PRES   REMARKS
QUINCY         PTCLDY    56  53  90 SW6       29.39R
GALESBURG*     CLOUDY    42  42 100 NE8       29.41F FOG
MACOMB*        PTCLDY    48  47  95 N7        29.41S FOG
JACKSONVILLE*  CLEAR     58  54  85 S13       29.40S
PITTSFIELD*    PTCLDY    59  55  84 S9        29.41S
$$

ILZ028>032-037-038-041>044-048-051>054-059>061-241300-
CENTRAL ILLINOIS

CITY           SKY/WX    TMP DP  RH WIND       PRES   REMARKS
PONTIAC        CLOUDY    58  57  95 S14       29.43R
BLOOMINGTON    PTCLDY    57  54  89 S17       29.44R
DECATUR        CLOUDY    60  55  83 S18       29.46S
PEORIA         MOCLDY    58  55  90 S12       29.39R
6HR MIN TEMP:  45; 6HR MAX TEMP:  58; 6HR PCP: TRACE;

LACON*         MOCLDY    44  44 100 CALM      29.40S FOG
LINCOLN*       CLEAR     60  57  91 S18G24    29.42S
SPRINGFIELD    CLEAR     60  55  83 S18       29.43S
6HR MIN TEMP:  59; 6HR MAX TEMP:  62; 6HR PCP: TRACE;

TAYLORVILLE    CLEAR     59  56  88 S16       29.46F
6HR MIN TEMP:  59; 6HR MAX TEMP:  60;

$$

ILZ033-039-045-046-055>057-062-063-241300-
EAST-CENTRAL ILLINOIS

CITY           SKY/WX    TMP DP  RH WIND       PRES   REMARKS
CHAMPAIGN      LGT RAIN  60  55  83 S22G31    29.48F
RANTOUL*       CLOUDY    61  57  88 S23G29    29.47F
MATTOON        MOCLDY    59  56  89 S16G22    29.51F
$$

ILZ079-100>102-241300-
SOUTHWEST ILLINOIS

CITY           SKY/WX    TMP DP  RH WIND       PRES   REMARKS
ALTON          CLEAR     60  54  79 S14       29.46S
BELLEVILLE     CLEAR     62  59  92 SE8       29.47S
CAHOKIA*       CLEAR     63  53  70 S9        29.46S
SPARTA*        CLEAR     60  56  85 S15G23    29.51F
$$

ILZ064>066-069>071-074>076-080>082-084>086-088>090-092>094-241300-
SOUTH-CENTRAL ILLINOIS

CITY           SKY/WX    TMP DP  RH WIND       PRES   REMARKS
CARBONDALE     CLEAR     62  57  83 S24G33    29.54S
6HR MIN TEMP:  62; 6HR MAX TEMP:  64;

CAIRO*         CLEAR     60  56  88 S9        29.61R
EFFINGHAM*     PTCLDY    59  57  92 SE7       29.53F
MARION         CLEAR     64  61  88 S16G28    29.56S
MT. VERNON     CLEAR     62  56  80 S21G28    29.53F
CENTRALIA*     CLEAR     64  57  80 S22G28    29.50F
SALEM*         PTCLDY    64  56  76 S13G18    29.51F
METROPOLIS*    CLEAR     63  56  80 S9        29.63S
$$

ILZ067-068-072-073-078-083-087-091-241300-
SOUTHEAST ILLINOIS

CITY           SKY/WX    TMP DP  RH WIND       PRES   REMARKS
LAWRENCEVILLE  CLEAR     58  55  90 S12       29.59R
FLORA*         CLEAR     61  56  85 S10G16    29.54F
FAIRFIELD*     CLEAR     60  57  87 S9        29.54F
HARRISBURG*    CLEAR     64  57  80 S17G25    29.58S
ROBINSON*      CLEAR     58  55  88 S10       29.58S
CARMI*         CLEAR     60  56  88 S14G21    29.58S
$$

ABBREVIATIONS USED IN REMARKS
   TC - TEMPERATURE IN CELSIUS
  WCI - WIND CHILL INDEX
   HX - HEAT INDEX
  VSB - VISIBILITY
$$





USA.gov is the U.S. government's official web portal to all federal, state and local government web resources and services.